User: anonymous   Login
Location: Peebles
(55.6412°N, 3.1714°W)
Time: 12:11:17
(UTC+00:00)
Language:

USA 307 - Orbit

View from above orbital plane
View from above orbital plane
View from above satellite
View from above satellite

Ground track
Ground track

The orbit data is extracted from the following two-line orbital elements,

1 45875U 20046C   21339.70472772 0.00006000  00000-0  47944-3 0    05
2 45875  53.9796 241.9555 0003729 194.7258 165.2741 14.99788517    03
Epoch (UTC): 05 December 2021 16:54:48
Eccentricity: 0.0003729
inclination: 53.9796°
perigee height: 565 km
apogee height: 570 km
right ascension of ascending node: 241.9555°
argument of perigee: 194.7258°
revolutions per day: 14.99788517
mean anomaly at epoch: 165.2741°
orbit number at epoch: 0

The dashed part of the orbit path shows where the satellite is in the earth's shadow,  

DLR